Orbital Elements at Epoch 2459000.5 (2020-May-31.0) TDB
Reference: JPL 38 (heliocentric ecliptic J2000)
Element | Value | Uncertainty (1-sigma) | Units |
e | .1299401487428154 | 3.2306e-08 | |
a | 2.545936188849356 | 8.6363e-09 | au |
q | 2.215116861780555 | 8.1805e-08 | au |
i | 3.308631181269931 | 3.4449e-06 | deg |
node | 290.3647099240131 | 7.1731e-05 | deg |
peri | 39.02114438627984 | 7.4153e-05 | deg |
M | 23.94592914219713 | 1.9065e-05 | deg |
tp | 2458901.804150231632 (2020-Feb-22.30415023) | 7.8619e-05 | TDB |
period | 1483.780633677787 4.06 | 7.5499e-06 2.067e-08 | d yr |
n | .2426234659146902 | 1.2345e-09 | deg/d |
Q | 2.876755515918158 | 9.7585e-09 | au |
|
| | Orbit Determination Parameters
Additional Information
|